EW3614 Weather Reports


time (UTC)temp
C
wind
direction
speed
KPH
gust
KPH
rain 1hr
cm
rain 24hr
cm
rain mn
cm
humidity
%
barometer
mb
20260504081545 2 200 0.0 0.0 0.00 0.03 0.03 88 948.7
20260504050015 0 201 0.0 0.0 0.00 0.00 0.00 85 948.7
20260504044507 -1 201 0.0 0.0 0.00 0.00 0.00 85 948.9
20260504043004 -1 201 0.0 0.0 0.00 0.00 0.00 85 949.1
20260504041501 -1 201 0.0 0.0 0.00 0.00 0.00 84 949.2
20260504040100 -1 201 0.0 0.0 0.00 0.00 0.00 84 949.2
20260504034558 -1 201 0.0 0.0 0.00 0.00 0.00 83 949.0
20260504033101 -17 201 0.0 0.0 0.00 0.00 0.00 83 949.0
20260504031555 0 201 0.0 0.0 0.00 0.00 0.00 82 949.1
20260504030054 -1 201 0.0 0.0 0.00 0.00 0.00 83 949.3
20260504024553 -1 201 0.0 0.0 0.00 0.00 0.00 81 949.2
20260504023051 0 201 0.0 0.0 0.00 0.00 0.00 80 949.1
20260504021548 -17 201 0.0 0.0 0.00 0.00 0.00 78 949.2
20260504020125 0 201 0.0 0.0 0.00 0.00 0.00 76 949.3
20260504014555 0 201 0.0 0.0 0.00 0.00 0.00 74 949.4
20260504013047 1 201 0.0 0.0 0.00 0.00 0.00 73 949.3
20260504011534 1 201 0.0 0.0 0.00 0.00 0.00 71 949.1
20260504010030 -17 201 0.0 0.0 0.00 0.00 0.00 69 949.0
20260504004533 3 201 0.0 0.0 0.00 0.00 0.00 67 949.0
20260504003028 3 201 0.0 0.0 0.00 0.00 0.00 66 948.8
20260504001527 4 201 0.0 0.0 0.00 0.00 0.00 62 948.7
20260504000027 5 203 0.0 0.0 0.00 0.00 0.00 61 948.7
20260503234526 -17 203 0.0 0.0 0.00 0.00 0.00 59 948.5
20260503233024 6 203 0.0 16.1 0.00 0.00 0.00 54 948.4
20260503231523 6 202 0.0 9.7 0.00 0.00 0.00 52 948.5
20260503230026 6 207 3.2 20.9 0.00 0.00 0.00 51 948.4
20260503224520 7 30 1.6 6.4 0.00 0.00 0.00 50 948.3
20260503223019 7 285 1.6 11.3 0.00 0.00 0.00 51 948.3
20260503221516 6 264 4.8 12.9 0.00 0.00 0.00 52 948.3
20260503220016 -17 59 3.2 12.9 0.00 0.00 0.00 51 948.2
20260503214518 6 260 3.2 24.1 0.00 0.00 0.00 51 948.2
20260503213014 7 285 4.8 14.5 0.00 0.00 0.00 51 948.3
20260503211511 7 243 3.2 19.3 0.00 0.00 0.00 53 948.3
20260503210012 6 245 3.2 20.9 0.00 0.00 0.00 52 948.2
20260503204509 -17 274 1.6 16.1 0.00 0.00 0.00 53 948.2
20260503203020 6 200 6.4 20.9 0.00 0.00 0.00 53 948.1
20260503201506 6 286 4.8 14.5 0.00 0.00 0.00 53 948.0
20260503200005 6 113 6.4 14.5 0.00 0.00 0.00 54 948.2
20260503194503 6 234 8.0 19.3 0.00 0.00 0.00 51 948.3
20260503193003 -17 262 6.4 17.7 0.00 0.00 0.00 50 948.2
20260503191559 6 246 6.4 20.9 0.00 0.00 0.00 50 948.4
20260503190108 -17 231 9.7 27.4 0.00 0.00 0.00 50 948.3
20260503184555 6 250 3.2 19.3 0.00 0.00 0.00 53 948.1
20260503183054 6 242 0.0 22.5 0.00 0.00 0.00 52 948.2
20260503181559 6 86 9.7 20.9 0.00 0.00 0.00 52 948.5
20260503180054 6 267 6.4 20.9 0.00 0.00 0.00 51 948.4
20260503174549 -17 207 1.6 12.9 0.00 0.10 0.00 50 948.4
20260503173047 6 70 1.6 16.1 0.00 0.10 0.00 50 948.3
20260503171544 6 69 6.4 16.1 0.00 0.10 0.00 50 948.3